Starlink 1830

operational
NORAD ID: 46727 Int'l Des: 2020-073 Owner: SPXS Country: US Constellation: starlink
LEOCIRCULAR

关于 Starlink 1830

正在加载描述...

实时位置

正在加载3D地球...

即将过境

高度历史

Altitude vs Time

uPlot chart will show altitude changes over time

两行轨道根数

1 46727U 20073BK 26062.38559134 .00129075 00000-0 19711-2 0 9997
2 46727 53.0455 213.8444 0001528 116.1082 244.0085 15.53518173296976
Epoch: Mar 3, 2026 • Age: 19 hours

当前状态

高度 411.7 km
速度 7.67 km/s
星下点 52.62°N, 154.47°W
发射日期 Oct 18, 2020
运行时间 5.3 years
类型 internet

技术详情

分类 Payload
质量 260.00 kg
干质量 248.00 kg
总质量 260.00 kg
长度 0.20 m
直径 2.80 m
跨度 9.00 m
形状 Box + pan
制造商 SPXS
平台类型 Starlink
阶段状态 In Orbit
所有者/国家 SPXS/US

大型星座

Loading constellations...